Volver al catálogo

FENGYUN 1C DEB

ActivoSSO
NORAD 33731·DEBRIS·🇨🇳 China

Lanzado May 10, 1999 desde Taiyuan Satellite Launch Center

Loading…

Próximos Pases (próximas 24 horas)

TLE

ActualizadoSource: Space-Track

Época: Sep 14, 2026, 13:05 UTC

1 33731U 99025DHU 26257.54523897  .00000972  00000-0  68861-3 0  9997
2 33731  99.4288 291.4645 0128386  27.9249 332.8725 13.96393080942974

Sigue FENGYUN 1C DEB en tiempo real con AllMySat

Download on the App Store